Tracking 19720 objects as of 26-Jun-2019
HD Live streaming from Space Station
objects crossing your sky now

COSMOS 1141

Track COSMOS 1141 now!
10-day predictions
COSMOS 1141 is classified as:


NORAD ID: 11585
Int'l Code: 1979-090A
Perigee: 959.3 km
Apogee: 1,004.4 km
Inclination: 82.9 °
Period: 104.6 minutes
Semi major axis: 7352 km
RCS: 2.1289 m2 (large)
Launch date: October 16, 1979
Source: Commonwealth of Independent States (former USSR) (CIS)
Launch site: PLESETSK MISSILE AND SPACE COMPLEX (PKMTR)
aabbcc
Your satellite tracking list
Your tracking list is empty




NASA's NSSDC Master Catalog

Two Line Element Set (TLE):
1 11585U 79090A   19176.44515270  .00000026  00000-0  10317-4 0  9991
2 11585  82.9497 283.8945 0030662  72.5283 358.9817 13.76942341994119
Source of the keplerian elements: AFSPC